Starlink 4578

operational
NORAD ID: 53965 Int'l Des: 2022-125 Owner: SPXS Country: US Constellation: starlink
LEOCIRCULAR

Starlink 4578について

説明を読み込み中...

リアルタイム位置

3D地球を読み込み中...

次回通過

高度履歴

Altitude vs Time

uPlot chart will show altitude changes over time

軌道要素

1 53965U 22125B 25258.10907394 -.00008590 00000-0 -52186-3 0 9994
2 53965 53.2149 292.4624 0001018 66.0618 294.0481 15.08870065162816
Epoch: Sep 15, 2025 • Age: 11 hours

現在のステータス

高度 545.3 km
速度 7.59 km/s
衛星直下点 -19.97°S, 75.43°E
打ち上げ日 Oct 5, 2022
運用期間 2.9 years
タイプ internet

技術仕様

分類 Payload
質量 305.00 kg
乾燥質量 290.00 kg
総質量 305.00 kg
長さ 0.20 m
直径 2.80 m
スパン 9.00 m
形状 Box + pan
製造者 SPXS
バスタイプ Starlink
フェーズステータス In Orbit
所有者/国 SPXS/US

大規模コンステレーション

Loading constellations...